Location: Bangkok
(13.7500°N, 100.5170°E)
Time: 02:13:31
(UTC+07:00)

Hubble Space Telescope - Visible Passes

Search period start: 28 July 2016 00:00
Search period end: 07 August 2016 00:00
Orbit: 539 x 543 km, 28.5° (Epoch: 27 July)

Date Brightness Start Highest point End Pass type
(mag) Time Alt. Az. Time Alt. Az. Time Alt. Az.
28 Jul 0.7 04:57:40 28° WSW 04:59:47 90° NNW 05:03:56 10° ENE visible
29 Jul 0.9 04:48:34 36° W 04:50:04 65° NNW 04:54:12 10° ENE visible
30 Jul 1.3 04:39:25 38° WNW 04:40:23 47° NNW 04:44:24 10° NE visible
31 Jul 1.7 04:30:14 34° NW 04:30:43 35° NNW 04:34:33 10° NE visible
01 Aug 2.2 04:21:02 28° NNW 04:21:05 28° NNW 04:24:39 10° NE visible
02 Aug 2.6 04:11:47 22° N 04:11:47 22° N 04:14:44 10° NE visible
03 Aug 3.0 04:02:33 18° N 04:02:33 18° N 04:04:47 10° NNE visible
03 Aug 3.5 05:43:20 10° NNW 05:43:55 10° N 05:44:31 10° N visible
04 Aug 3.4 03:53:18 14° N 03:53:18 14° N 03:54:48 10° NNE visible
05 Aug 3.7 03:44:04 12° N 03:44:04 12° N 03:44:49 10° NNE visible
05 Aug 3.7 05:24:39 10° N 05:24:55 10° N 05:25:10 10° N visible
06 Aug 3.6 05:14:33 10° N 05:15:24 10° N 05:16:15 10° NNE visible
